Regional Weather Roundup
Issued by NWS

Home | Current Version | Previous Version | Text Only | Print | Product List | Glossary On
Versions: 1 2 3 4 5 6 7 8 9 10 11 12 13 14 15 16 17 18 19 20 21 22 23 24 25 26 27 28 29 30 31 32 33 34 35 36 37 38 39 40 41 42 43 44 45 46 47 48 49 50
000
ASHW40 PHFO 302343
RWRHI

WEATHER ROUNDUP FOR HAWAII
NATIONAL WEATHER SERVICE HONOLULU HI
100 PM HST SUN AUG 30 2015

THIS IS AN AUTOMATED REPORT THAT HAS NOT BEEN QUALITY CONTROLLED.

NOTE..."FAIR" INDICATES FEW OR NO CLOUDS BELOW 12,000 FEET WITH NO
SIGNIFICANT WEATHER AND/OR OBSTRUCTIONS TO VISIBILITY.

* - THESE SITES REPORT LIMITED FIELDS

HIZ001>004-310000-
KAUAI-NIIHAU-

CITY           SKY/WX    TMP DP  RH WIND       PRES   REMARKS
LIHUE APT      PTSUNNY   84  78  82 NE12      29.94F HX  95
PORT ALLEN*    NOT AVBL
POIPU*         NOT AVBL
PRINCEVILLE*     N/A     84 N/A N/A MISG        N/A
KOKOLE POINT*  NOT AVBL
MOLOAA DAIRY*    N/A     84  75  74 E8G14       N/A  HX  92
WAIMEA HTS*      N/A     91  72  52 E8G20       N/A  HX  98
PUU OPAE*        N/A     79  73  83 NW5         N/A
PUU LUA*       NOT AVBL
MAKAHA RIDGE*    N/A     79  73  83 S3          N/A
$$

HIZ005>011-310000-
OAHU-

CITY           SKY/WX    TMP DP  RH WIND       PRES   REMARKS
HONOLULU       PTSUNNY   89  72  56 NE14      29.89F HX  96
KALAELOA       CLOUDY    89  71  55 VRB3      29.90F HX  95
KANEOHE MCB    MOSUNNY   86  75  69 NE12      29.88F HX  95
WHEELER FIELD  FAIR      85  73  67 NE9       29.90F HX  91
BELLOWS*         N/A    N/A N/A N/A NE13        N/A
KAHUKU*          N/A    N/A N/A N/A NE9G20      N/A
WHEELER*       NOT AVBL
WAIANAE HARBOR NOT AVBL
DILLINGHAM*      N/A     70  54  56 MISG        N/A
KAHUKU TRN*      N/A     73  63  68 E9G21       N/A
KAWAILOA*        N/A     81  72  74 E8G18       N/A
KII*             N/A     84  75  74 E15G21      N/A  HX  92
MAKUA RANGE*     N/A     88  70  55 SW5G17      N/A  HX  92
OAHU FOREST NW   N/A     73  72  94 CALM        N/A
SCHOFIELD BRK*   N/A     70  55  60 MISG        N/A
SCHOFIELD S*   NOT AVBL
WAIANAE VLY*     N/A     91  72  52 MISG        N/A  HX  98
KUAOKALA*        N/A     82  72  69 N13G28      N/A
HONOULIUULI*   NOT AVBL
MOKUOLOE IS*     N/A    N/A N/A N/A MISG        N/A
PALEHUA*         N/A     82  68  61 NE3G16      N/A
WAIAWA PHB*    NOT AVBL
$$

HIZ012>013-310000-
MOLOKAI-

CITY           SKY/WX    TMP DP  RH WIND       PRES   REMARKS
MOLOKAI AIRPT  PTSUNNY   84  75  74 N12G24    29.90F HX  92
KALAUPAPA      NOT AVBL
MAKAPULAPAI*     N/A     84  75  74 E15G24      N/A  HX  92
MOLOKAI 1*       N/A     81  75  83 E3G14       N/A
PUU ALII*        N/A     68  68 100 E3          N/A
$$

HIZ016-310000-
KAHOOLAWE-

CITY           SKY/WX    TMP DP  RH WIND       PRES   REMARKS
KAHOOLAWE*       N/A     79 N/A N/A NE12G20     N/A
HAKIOAWA*        N/A     80  76  86 MISG      30.31F
HONOKANAIA*      N/A     81  75  82 E7G26     29.84S
KANELOA*         N/A     77  75  94 SE5G18    29.97F
KEALIALALO*      N/A     86  75  70 NE13G29   29.87F HX  95
LUA MAKIKA*    NOT AVBL
$$

HIZ014>015-310000-
LANAI-

CITY           SKY/WX    TMP DP  RH WIND       PRES   REMARKS
LANAI CITY     PTSUNNY   82  73  74 NE21      29.94F
LANAI 1*         N/A     73  66  78 NE22G31     N/A
$$

HIZ017>028-310000-
MAUI-

CITY           SKY/WX    TMP DP  RH WIND       PRES   REMARKS
KAHULUI        CLOUDY    85  78  80 N15       29.89F HX  96
KAPALUA-W MAUI PTSUNNY   86  75  70 NE13G21   29.90  HX  95
HANA AIRPORT   LGT RAIN  81  77  89 CALM      29.91F
HANA*            N/A     82 N/A N/A E6          N/A
HALEAKALA SUMM   N/A     50  50 100 E18         N/A
MAALAEA BAY*   NOT AVBL
HALEAKALA*     NOT AVBL
KAUPO GAP*       N/A     73  70  88 S2G13       N/A
KULA 1*          N/A     64  62  93 S7          N/A
$$

HIZ023>026-310000-
BIG ISLAND OF HAWAII COAST AND LOWER SLOPES-

CITY           SKY/WX    TMP DP  RH WIND       PRES   REMARKS
KAILUA KONA    PTSUNNY   89  73  59 SW12      29.83F HX  97
HILO           MOSUNNY   88  77  69 N9        29.87F HX 100
HONOKAA*       NOT AVBL
KAWAIHAE MWT*    N/A     86 N/A N/A W5          N/A
KAWAIHAE*        N/A     86 N/A N/A W5          N/A
SOUTH POINT*     N/A     82 N/A N/A E2G9        N/A
UPOLU AIRPORT*   N/A    N/A N/A N/A NE14G20     N/A
KAMUELA*       NOT AVBL
HAKALAU*         N/A     69  60  74 E5G12       N/A
KALOKO-HONOKO*   N/A     90  73  58 S8        29.82F HX  98
PALI 2*          N/A     75  72  88 SW6G15      N/A
KEALAKOMO*     NOT AVBL
KAUPULEHU*       N/A     88  73  62 W9          N/A  HX  96
KAPAPALA*        N/A     82  73  72 S6G12       N/A
LOWER KAHUKU*    N/A     72  72 100 SW1         N/A
PUHE CS*         N/A     88  70  55 W2          N/A  HX  92
PUHO CS*         N/A     88  71  56 SW3G9       N/A  HX  93
PTA KEAMUKU*     N/A     81  66  61 CALM        N/A
WAIKOLOA*        N/A     88  70  55 NW7G24      N/A  HX  92
$$

HIZ027>028-310000-
BIG ISLAND OF HAWAII INTERIOR AND SUMMMITS-

CITY           SKY/WX    TMP DP  RH WIND       PRES   REMARKS
BRADSHAW FIELD CLOUDY    70  61  73 W7        30.24F
MK VISITOR CEN   N/A     59  43  55 SE9         N/A
MAUNA KEA*       N/A     46  39  76 S2G15       N/A
MAUNA LOA*       N/A     54  37  54 MISG        N/A
MAUNA LOA 1*   NOT AVBL
PTA KIPUKA*      N/A    N/A N/A N/A VRB6G12     N/A
PTA RANGE 17*    N/A     72  61  68 W12G20      N/A
PTA WEST*        N/A     75  66  73 W10G20      N/A
NENE CABIN*      N/A     64  57  77 SE5G12      N/A
AHUMOA*          N/A     66  63  91 S3G10       N/A
PTA PORTABLE*  NOT AVBL
PUU MALI*        N/A     70  63  78 E22G33      N/A
$$

HIC003-310000-
NORTHWEST ISLANDS-

CITY           SKY/WX    TMP DP  RH WIND       PRES   REMARKS
MIDWAY ISLAND  SUNNY     88  79  74 S6        29.92S HX 102
MIDWAY NOS*    NOT AVBL
FRENCH FRIGATE NOT AVBL
$$

PHZ110>124-180-310000-
BUOY REPORTS

STATION/POSITION TIME  TEMP    WIND        PRES    WAVE   SWELL
                       AIR SEA DIR/SP/G            HT/PER HT/DIR
                 (UTC) (F)     (DEG/KT/KT) (MB)    (FT/S) (FT/D)
BUOY 51001       2256   82 83  110/ 14/ 16 1013.9
BUOY 51101       2300   82 83  120/ 16/ 17 1013.2F   7/11   7/240
BUOY 51100       NOT AVBL
BUOY 51002       2300   83 84   60/ 10/ 12 1011.1F   7/13   7/240
BUOY 51003       2300   82 85   40/ 10/ 12 1011.9F   5/11   5/140
BUOY 51004       2216   82 83  330/ 14/ 17 1009.0F   9/12   8/ 90
BARBERS PT BUOY  NOT AVBL
WAIMEA BAY BUOY  2300      82                N/A     5/ 8   2/310
KAILUA BAY BUOY  2300      84                N/A     5/ 8   2/ 70
LANAI BUOY       NOT AVBL
BARBERS PT 2     2300      84                N/A     4/13   3/270
PAUWELA MAUI     2300      82                N/A     6/ 7   2/ 20
HILO             NOT AVBL
KANEOHE BAY BUOY 2300      82                N/A     5/ 8   2/ 40
HANALEI KAUAI    2300      83                N/A     5/13
KAHULUI HARBOR   NOT AVBL
HONOLULU HARBOR  NOT AVBL
KILO NALU        NOT AVBL
HILO HARBOR      NOT AVBL
MOKUOLOE         NOT AVBL
NAWILIWILI       NOT AVBL
WHOTS BUOY       NOT AVBL
BUOY 51028       NOT AVBL
$$

......................KEY........................................
  SKY/WX - SKY CONDITIONS/PRESENT WEATHER
  TMP    - TEMPERATURE IN FAHRENHEIT
  DWPT   - DEWPOINT IN FAHRENHEIT
  RH     - RELATIVE HUMIDITY IN PERCENT
  WIND   - DIRECTION AND SPEED /MPH FOR ISLANDS...KTS FOR BUOYS/
  PRES   - MEAN SEA LEVEL PRESSURE IN INCHES OF HG
  VSB    - VISIBILITY IN MILES
  HX     - HEAT INDEX
  WCI    - WIND CHILL INDEX
  VRB    - VARIABLE WIND DIRECTION
  N/A    - NOT AVAILABLE


USA.gov is the U.S. government's official web portal to all federal, state and local government web resources and services.